KC5EZZ-2 Weather Reports


time (UTC)temp
C
wind
direction
speed
KPH
gust
KPH
rain 1hr
cm
rain 24hr
cm
rain mn
cm
humidity
%
barometer
mb
20190124080329 2 256 11.3 16.1 0.00 0.00 0.00 41 944.0
20190124075830 2 260 11.3 16.1 0.00 0.00 0.00 41 944.0
20190124074828 2 271 11.3 12.9 0.00 0.00 0.00 43 944.0
20190124072822 0 285 11.3 14.5 0.00 0.00 0.00 52 944.0
20190124072324 0 283 9.7 9.7 0.00 0.00 0.00 54 944.0
20190124071821 0 280 4.8 6.4 0.00 0.00 0.00 54 944.0
20190124071323 0 209 0.0 6.4 0.00 0.00 0.00 54 944.0
20190124064810 -1 148 0.0 0.0 0.00 0.00 0.00 52 944.0
20190124064311 0 148 0.0 0.0 0.00 0.00 0.00 52 944.0
20190124063308 0 148 0.0 0.0 0.00 0.00 0.00 51 944.0
20190124062810 0 148 0.0 0.0 0.00 0.00 0.00 51 944.0
20190124061310 0 148 0.0 6.4 0.00 0.00 0.00 50 944.0
20190124060812 0 148 6.4 6.4 0.00 0.00 0.00 50 944.0
20190124055313 1 112 0.0 4.8 0.00 0.00 0.00 50 944.0
20190124054808 1 135 0.0 6.4 0.00 0.00 0.00 50 944.0
20190124052810 1 268 4.8 6.4 0.00 0.00 0.00 49 944.0
20190124052312 1 268 4.8 4.8 0.00 0.00 0.00 49 945.0
20190124051810 2 259 0.0 12.9 0.00 0.00 0.00 50 945.0
20190124051312 1 247 11.3 14.5 0.00 0.00 0.00 51 945.0
20190124050312 1 178 6.4 6.4 0.00 0.00 0.00 52 945.0
20190124045314 1 174 6.4 8.0 0.00 0.00 0.00 52 945.0
20190124044808 1 166 6.4 6.4 0.00 0.00 0.00 51 945.0
20190124044309 1 166 6.4 6.4 0.00 0.00 0.00 50 945.0
20190124043810 1 164 6.4 9.7 0.00 0.00 0.00 51 945.0
20190124043259 1 164 8.0 9.7 0.00 0.00 0.00 51 945.0
20190124042802 2 164 8.0 8.0 0.00 0.00 0.00 52 945.0
20190124042302 1 167 6.4 6.4 0.00 0.00 0.00 52 945.0
20190124041800 1 199 6.4 6.4 0.00 0.00 0.00 51 945.0
20190124041301 1 199 4.8 6.4 0.00 0.00 0.00 50 945.0
20190124040802 1 199 4.8 4.8 0.00 0.00 0.00 48 945.0
20190124040301 2 199 4.8 6.4 0.00 0.00 0.00 48 945.0
20190124035803 2 199 0.0 6.4 0.00 0.00 0.00 49 945.0
20190124035304 2 199 4.8 8.0 0.00 0.00 0.00 49 945.0
20190124034800 3 199 6.4 9.7 0.00 0.00 0.00 49 945.0
20190124033301 3 220 9.7 11.3 0.00 0.00 0.00 46 945.0
20190124032802 2 214 9.7 14.5 0.00 0.00 0.00 45 945.0
20190124032304 2 210 11.3 12.9 0.00 0.00 0.00 47 945.0
20190124031801 2 217 9.7 12.9 0.00 0.00 0.00 50 945.0
20190124031303 1 207 9.7 11.3 0.00 0.00 0.00 52 945.0
20190124030804 0 212 9.7 8.0 0.00 0.00 0.00 51 945.0
20190124025804 0 299 0.0 4.8 0.00 0.00 0.00 45 945.0
20190124024803 0 299 4.8 6.4 0.00 0.00 0.00 44 945.0
20190124024305 0 299 0.0 0.0 0.00 0.00 0.00 44 945.0
20190124023806 1 299 0.0 6.4 0.00 0.00 0.00 44 945.0
20190124023305 1 299 4.8 6.4 0.00 0.00 0.00 43 945.0
20190124022806 1 299 4.8 6.4 0.00 0.00 0.00 42 945.0
20190124022308 1 299 0.0 6.4 0.00 0.00 0.00 41 945.0
20190124021805 1 299 6.4 6.4 0.00 0.00 0.00 41 945.0
20190124015309 1 299 0.0 0.0 0.00 0.00 0.00 37 945.0
20190124014807 2 299 0.0 0.0 0.00 0.00 0.00 35 945.0
20190124012305 3 299 0.0 0.0 0.00 0.00 0.00 31 945.0
20190124011304 3 299 0.0 4.8 0.00 0.00 0.00 30 945.0
20190124005802 4 299 4.8 6.4 0.00 0.00 0.00 29 945.0
20190124004759 5 299 6.4 6.4 0.00 0.00 0.00 26 945.0
20190124004301 6 299 4.8 4.8 0.00 0.00 0.00 25 945.0
20190123232756 12 295 12.9 16.1 0.00 0.00 0.00 18 946.0
20190123212758 14 306 14.5 24.1 0.00 0.00 0.00 17 946.0
20190123201736 15 333 12.9 17.7 0.00 0.00 0.00 16 948.0
20190123195739 16 343 11.3 19.3 0.00 0.00 0.00 16 948.0
20190123193239 15 351 12.9 20.9 0.00 0.00 0.00 16 949.0
20190123191730 15 332 8.0 24.1 0.00 0.00 0.00 17 949.0
20190123190733 15 325 9.7 19.3 0.00 0.00 0.00 17 950.0
20190123172219 11 328 19.3 25.7 0.00 0.00 0.00 20 952.0
20190123152219 5 327 16.1 20.9 0.00 0.00 0.00 38 951.0
20190123150215 3 329 14.5 17.7 0.00 0.00 0.00 42 951.0
20190123145219 3 335 11.3 16.1 0.00 0.00 0.00 48 951.0
20190123144716 2 311 11.3 14.5 0.00 0.00 0.00 51 951.0
20190123144218 2 328 11.3 11.3 0.00 0.00 0.00 54 951.0
20190123141709 -1 309 8.0 11.3 0.00 0.00 0.00 58 952.0
20190123140713 -1 311 9.7 11.3 0.00 0.00 0.00 59 952.0
20190123135707 -1 305 9.7 12.9 0.00 0.00 0.00 64 952.0
20190123135210 -2 299 11.3 11.3 0.00 0.00 0.00 70 952.0
20190123130652 -3 257 6.4 8.0 0.00 0.00 0.00 63 951.0
20190123124653 -3 294 6.4 8.0 0.00 0.00 0.00 64 951.0
20190123123152 -3 306 6.4 8.0 0.00 0.00 0.00 62 951.0
20190123121654 -3 295 6.4 8.0 0.00 0.00 0.00 61 951.0
20190123121155 -3 295 6.4 9.7 0.00 0.00 0.00 60 951.0
20190123120657 -3 292 8.0 9.7 0.00 0.00 0.00 59 951.0
20190123115657 -3 301 6.4 8.0 0.00 0.00 0.00 59 951.0
20190123113700 -3 317 8.0 11.3 0.00 0.00 0.00 55 950.0
20190123112201 -2 321 8.0 8.0 0.00 0.00 0.00 54 951.0
20190123110658 -2 303 6.4 6.4 0.00 0.00 0.00 54 951.0
20190123105658 -2 311 6.4 8.0 0.00 0.00 0.00 53 951.0
20190123091628 0 351 16.1 16.1 0.00 0.00 0.00 43 950.0